Zurück zum Katalog

GALILEO 30

10E

AktivNavigationMEO
NORAD 59600·PAYLOAD·🇪🇺 EU

Gestartet Apr 28, 2024 von Cape Canaveral Space Force Station

Loading…

Nächste Überflüge (nächste 24 Stunden)

TLE

AktuellSource: CelesTrak SupGP

Epoche: Sep 13, 2026, 23:59 UTC

1 59600C 24079C   26256.99979167  .00000000  00000+0  00000+0 0  2564
2 59600  55.1722  98.5945 0004181  95.0682 164.3879  1.70474437    14

Verfolge GALILEO 30 in Echtzeit mit AllMySat

Download on the App Store